Погода в Ндоле

Замбия     13°00′01″S   28°35′21″E
темп.,
°C
ветер,
м/с
пор.,
м/с
влажн.,
%
обл.,
%
осадки,
мм/ч
давл.,
гПа
погр.,
м
26 июля, пн
пн2623:00+11вюв413670 0.0 1026659
02:00+8юв311790 0.0 1025422
05:00+8вюв313775 0.0 1025597
08:00+10вюв5126922 0.0 1027806
11:00+18вюв583661 0.0 10241561
14:00+22вюв462414 0.0 10202153
17:00+20вюв4628100 0.0 10191694
20:00+13юв31244100 0.0 1022364
27 июля, вт
вт2723:00+12вюв41250100 0.0 1023523
02:00+9юв2967100 0.0 1024288
05:00+8вюв31175100 0.0 1024331
08:00+11вюв41164100 0.0 1025518
11:00+19в46378 0.0 10231453
14:00+23вюв3425100 0.0 10181988
17:00+21в352765 0.0 1017779
20:00+14юв412445 0.0 1021371
28 июля, ср
ср2823:00+11в21060100 0.0 1022236
02:00+10юв3106319 0.0 1021233
05:00+8вюв2667100 0.0 1021131
08:00+12вюв3852100 0.0 1022277
11:00+21в2328100 0.0 10211207
14:00+26юв112173 0.0 10161921
17:00+24юв222216 0.0 1015691
20:00+16юв233579 0.0 101849
29 июля, чт
чт2923:00+12вюв2850100 0.0 1021170
02:00+11юв295899 0.0 1021193
05:00+9юв2671100 0.0 1021121
08:00+14вюв3653100 0.0 1022241
11:00+23юв3325100 0.0 10201253
14:00+27ююв2118100 0.0 10162236
17:00+24ю232198 0.0 101670
20:00+17юв3123450 0.0 1020349
30 июля, пт
пт3023:00+14вюв295098 0.0 1022187
02:00+12юв313554 0.0 1022299
05:00+11вюв211645 0.0 1022237
08:00+15вюв412472 0.0 1023436
11:00+24вюв45251 0.0 10211507
14:00+28вюв45165 0.0 10172483
17:00+26вюв461847 0.0 10171944
20:00+19юв513315 0.0 1021653